Bert Mooney Airport
KBTM : now visible

Airfield :











YOU CAN JOIN US ON...

 
LOGIN :

Register | Disclaimer

   EN    FR    IT 

 









Legend :    VFR   Marginal VFR   IFR   Intensive IFR   Very Intensive IFR
Visi :
Ceiling :
>= 8 km
>= 3000ft
5 to 8 km
1000 to 3000 ft
1500m to 5 km
500 to 1000 ft
800 to 1500m
200 to 500 ft
< 800m
< 200 ft
Symbols :   Thunderstorms  Fog  Heavy snow  Heavy precipitations  Wind > 20 kt






- Airport Elevation : 5550 ft
- IATA code : BTM


KBTM - Bert Mooney

CURRENT METAR :
  • 190853Z AUTO 00000KT 10SM CLR 11/01 A3006 RMK AO2 SLP120 T01060006 58005

EXPIRED METARs :
  • 190753Z AUTO 14006KT 10SM CLR 10/01 A3006 RMK AO2 SLP128 T01000006
  • 190653Z AUTO 00000KT 10SM CLR 13/01 A3007 RMK AO2 SLP127 T01280011 402890033

TAF KBTM
Valid from the 19 at 06:00 until the 20 at 06:00 UTC


190520Z 1906/2006 18004KT P6SM SKC
FM191800 30013G23KT P6SM BKN150
FM200300 33008G18KT P6SM BKN100
KZLC FIR / North America



MET'MAP, your aeronautical weather chart ! - Copyright ORBIFLY December 2007 - Disclaimer

ORBIFLY MET'MAP TEAM :

Programming & Development : Alexandra Zaïnal
Concept & original design : Baudouin d'Aumeries
Assistance for programming : Marc-Olivier Méhu
Technical & hardware support : Manuel Goepfert

Contact : metmap@orbifly.com




SOURCES & CREDITS :

   NOAA       Earth
Advisory